STARLINK-36414, 67468

Orbit data source: Space-Track

STARLINK-36414, 67468 is a payload satellite owned by SpaceX/Seattle (US) in LEO that was launched on Wed, 14 Jan 2026 UTC via an FALCON 9 launch vehicle from the Air Force Eastern Test Range (AFETR). Payload-class satellites include a variety of spacecraft equipped with specific instruments for various scientific and technological missions. These include communications satellites like Starlink; space stations such as the ISS; scientific satellites like the Hubble; Earth observation satellites from companies like Planet Labs, Umbra, and HawkEye 360; GPS; miniature CubeSats for education and research; and military/defense satellites.

Loading next visibility...
Identifier
67468, 2026-008Z
Orbit
LEO
Country
Flag of USUS
Related business
Manufacturer
SpaceX/Seattle
Mission
Operational spacecraft
Bus & Motor
STARLINK V2MO, Unknown motor
Mass
575 kg wet, ~530 kg dry
Launch date (UTC)
2026-01-14 (2 months ago)
Launch vehicle
FALCON 9
Launch site
Air Force Eastern Test Range (AFETR)
Object type
Payload
Rocket body
Debris
Shape & HBR
Unknown shape, 17.7 m
Radar Cross Section
RCS unknown

Expand to show TLE details & history
Last TLE update: 19 hours ago

TLE from 19 hours ago
0 STARLINK-36414
1 67468U 26008Z   26062.53121447  .00031052  00000-0  11324-2 0  9994
2 67468  42.9975 239.7032 0002096 286.0720  73.9901 15.27602804  8638
Epoch: 2026-03-03T12:44Z
TLE epoch observation values (Epoch: 2026-03-03T12:44:56.930Z)
Latitude
0.00001°
Longitude
-112.84293°
Altitude
482.36 km
Speed
7.626 km/s
True Right ascension
15h 58m 48s
True Declination
0° 00' 00"
Sunlit
Object was in daylight at epoch
Visualization orbit readout
Latitude
Unknown
Longitude
Unknown
Altitude
Unknown
Speed
Unknown
Apparent Right ascension
Unknown
Apparent Declination
Unknown
Sunlit
N/A
Visualization observer readout
Local Sidereal Time
11:20:19
Azimuth
Unknown
Elevation
Unknown
Doppler factor
Unknown
Orbital elements
Apogee altitude
486.365 km
Perigee altitude
483.488 km
Semi-major axis
6,863.063 km
Eccentricity
0.00021
Inclination
42.9975°
RAAN
239.7032°
Arg. of periapsis
286.072°
True anomaly
74.01319°
Mean anomaly
73.9901°
Eccentric anomaly
74.00164°
Mean motion
3.81739 °/min
Orbital period
94.31 mins
BSTAR
0.0011324
Loading maneuver chart data...
Computing Atmospheric mass density...
Loading historical data...
Loading historical data...
Loading historical data...
Loading historical data...
Loading historical data...
Loading historical data...
Loading historical data...

Documentation

Showing up to 5 results
|